Tracking 29892 objects as of 21-Nov-2024
HD Live streaming from Space Station
objects crossing your sky now

COSMOS 1959

Track COSMOS 1959 now!
10-day predictions
COSMOS 1959 is classified as:


NORAD ID: 19324
Int'l Code: 1988-062A
Perigee: 960.1 km
Apogee: 1,008.4 km
Inclination: 83.0 °
Period: 104.6 minutes
Semi major axis: 7355 km
RCS: 2.5206 m2 (large)
Launch date: July 18, 1988
Source: Commonwealth of Independent States (former USSR) (CIS)
Launch site: PLESETSK MISSILE AND SPACE COMPLEX (PKMTR)
Your satellite tracking list
Your tracking list is empty




NASA's NSSDC Master Catalog

Two Line Element Set (TLE):
1 19324U 88062A   24326.11928316  .00000066  00000-0  52203-4 0  9999
2 19324  82.9517 187.9469 0032842 283.4237 242.5122 13.76277040825140
Source of the keplerian elements: AFSPC